Weather History for Atlanta Fulton, GA

Change the Weather History Date:

Saturday, July 6, 2013

  Actual Average Record
Temperature  
Mean Temperature 77 °F 80 °F  
Max Temperature 83 °F 90 °F 98 °F (2012)
Min Temperature 71 °F 69 °F 63 °F (2001)
Cooling Degree Days 12 14  
Month to date cooling degree days 65 84  
Year to date cooling degree days 602 634  
Since 1 June cooling degree days 439 434  
Growing Degree Days 26 (Base 50)    
Moisture  
Dew Point 71 °F    
Average Humidity 83    
Maximum Humidity 100    
Minimum Humidity 65    
Precipitation  
Precipitation 0.91 in 0.18 in 2.51 in (2005)
Month to date precipitation 4.82 1.12  
Year to date precipitation 21.37 26.74  
Sea Level Pressure  
Sea Level Pressure 30.13 in    
Wind  
Wind Speed 4 mph (SE)    
Max Wind Speed 24 mph    
Max Gust Speed 38 mph    
Visibility 9 miles    
Events Fog , Rain    
T = Trace of Precipitation, MM = Missing Value Source: NWS Daily Summary

Daily Weather History Graph

Daily Weather History Graph

Search for Another Location

Airport:

Trip Planner

Search our weather history database for the weather conditions in past years. The results will help you decide how hot, cold, wet, or windy it might be!

Date:

Astronomy

Jul. 06, 2013 Rise Set
Actual Time 6:33 AM EDT 8:52 PM EDT
Civil Twilight 6:04 AM EDT 9:20 PM EDT
Nautical Twilight 5:29 AM EDT 9:56 PM EDT
Astronomical Twilight 4:50 AM EDT 10:34 PM EDT
Moon 5:16 AM EDT (7/6) 7:35 PM EDT (7/6)
Length of Visible Light 15h 16m
Length of Day
14h 18m
Waning Crescent, 2% of the Moon is Illuminated
Jul 6
Waning Crescent
Jul 8
New
Jul 15
First Quarter
Jul 22
Full
Jul 29
Last Quarter

Hourly Weather History & Observations

Time (EDT) Temp. Heat Index Dew Point Humidity Pressure Visibility Wind Dir Wind Speed Gust Speed Precip Events Conditions
12:15 AM 71.6 °F - 69.8 °F 94% 30.16 in 10.0 mi ESE 4.6 mph - N/A   Mostly Cloudy
12:30 AM 71.6 °F - 69.8 °F 94% 30.16 in 10.0 mi SE 3.5 mph - N/A   Scattered Clouds
12:45 AM 71.6 °F - 69.8 °F 94% 30.15 in 10.0 mi ESE 4.6 mph - N/A   Scattered Clouds
12:53 AM 71.1 °F - 69.1 °F 93% 30.13 in 10.0 mi SE 8.1 mph - N/A   Partly Cloudy
1:45 AM 71.6 °F - 69.8 °F 94% 30.16 in 10.0 mi Variable 3.5 mph - N/A   Overcast
1:53 AM 71.1 °F - 69.1 °F 93% 30.13 in 10.0 mi SE 4.6 mph - N/A   Overcast
2:08 AM 71.6 °F - 69.8 °F 94% 30.15 in 10.0 mi East 3.5 mph - N/A   Overcast
2:17 AM 71.6 °F - 69.8 °F 94% 30.15 in 10.0 mi Calm Calm - N/A   Overcast
2:53 AM 72.0 °F - 69.1 °F 91% 30.12 in 10.0 mi SE 3.5 mph - N/A   Overcast
3:08 AM 71.6 °F - 69.8 °F 94% 30.14 in 10.0 mi Variable 5.8 mph - N/A   Overcast
3:19 AM 71.6 °F - 69.8 °F 94% 30.14 in 10.0 mi SE 4.6 mph - N/A   Overcast
3:28 AM 71.6 °F - 69.8 °F 94% 30.14 in 10.0 mi SSE 4.6 mph - N/A   Overcast
3:36 AM 71.6 °F - 69.8 °F 94% 30.14 in 10.0 mi SSE 5.8 mph - N/A   Overcast
3:53 AM 72.0 °F - 69.1 °F 91% 30.11 in 10.0 mi East 4.6 mph - N/A   Overcast
4:28 AM 71.6 °F - 69.8 °F 94% 30.14 in 10.0 mi ESE 3.5 mph - N/A   Mostly Cloudy
4:53 AM 72.0 °F - 69.1 °F 91% 30.12 in 10.0 mi East 3.5 mph - N/A   Mostly Cloudy
5:10 AM 71.6 °F - 69.8 °F 94% 30.14 in 10.0 mi East 4.6 mph - N/A   Scattered Clouds
5:53 AM 72.0 °F - 69.1 °F 91% 30.12 in 10.0 mi ESE 3.5 mph - N/A   Mostly Cloudy
6:22 AM 71.6 °F - 69.8 °F 94% 30.15 in 10.0 mi SE 3.5 mph - N/A   Overcast
6:48 AM 71.6 °F - 69.8 °F 94% 30.15 in 10.0 mi Calm Calm - N/A   Overcast
6:53 AM 72.0 °F - 69.1 °F 91% 30.14 in 10.0 mi East 3.5 mph - N/A   Overcast
7:53 AM 73.0 °F - 70.0 °F 90% 30.14 in 10.0 mi ESE 4.6 mph - N/A   Overcast
8:53 AM 73.9 °F - 70.0 °F 87% 30.15 in 10.0 mi SE 5.8 mph - N/A   Overcast
9:46 AM 75.2 °F - 71.6 °F 89% 30.17 in 10.0 mi SSE 6.9 mph - N/A   Overcast
9:53 AM 75.0 °F - 71.1 °F 87% 30.15 in 10.0 mi SE 6.9 mph - N/A   Overcast
10:37 AM 77.0 °F - 71.6 °F 83% 30.17 in 10.0 mi SE 8.1 mph - N/A   Overcast
10:53 AM 77.0 °F - 71.1 °F 82% 30.14 in 10.0 mi SE 4.6 mph - N/A   Mostly Cloudy
11:48 AM 78.8 °F - 71.6 °F 78% 30.17 in 10.0 mi SSE 6.9 mph - N/A   Scattered Clouds
11:53 AM 78.1 °F - 71.1 °F 79% 30.14 in 10.0 mi SE 6.9 mph - N/A   Mostly Cloudy
12:53 PM 80.1 °F 83.2 °F 70.0 °F 71% 30.13 in 10.0 mi SE 8.1 mph - N/A   Scattered Clouds
1:53 PM 80.1 °F 83.8 °F 72.0 °F 76% 30.11 in 3.0 mi SE 8.1 mph - 0.02 in Rain Heavy Rain
1:57 PM 78.8 °F - 73.4 °F 83% 30.13 in 3.0 mi ESE 5.8 mph - 0.01 in Rain Rain
2:04 PM 78.8 °F - 73.4 °F 83% 30.13 in 3.0 mi SSE 10.4 mph - 0.03 in Rain Light Rain
2:53 PM 79.0 °F - 73.0 °F 82% 30.08 in 10.0 mi Calm Calm - 0.10 in   Mostly Cloudy
3:53 PM 82.0 °F 86.7 °F 72.0 °F 71% 30.07 in 10.0 mi SSE 5.8 mph - N/A   Mostly Cloudy
4:53 PM 82.0 °F 85.5 °F 69.1 °F 65% 30.07 in 10.0 mi SSE 5.8 mph - N/A   Mostly Cloudy
5:53 PM 79.0 °F - 73.0 °F 82% 30.12 in 1.0 mi South 21.9 mph 38.0 mph 0.10 in Rain Light Rain
5:55 PM 77.0 °F - 73.4 °F 89% 30.14 in 0.5 mi South 18.4 mph 38.0 mph 0.17 in Fog , Rain Heavy Rain
6:15 PM 73.4 °F - 71.6 °F 94% 30.11 in 10.0 mi Calm Calm - 0.40 in   Mostly Cloudy
6:53 PM 73.0 °F - 70.0 °F 90% 30.08 in 10.0 mi Calm Calm - 0.40 in   Mostly Cloudy
7:19 PM 73.4 °F - 71.6 °F 94% 30.11 in 1.8 mi SW 4.6 mph - 0.05 in Rain Light Rain
7:53 PM 73.0 °F - 71.1 °F 93% 30.11 in 10.0 mi SW 3.5 mph - 0.29 in   Overcast
8:53 PM 73.0 °F - 71.1 °F 93% 30.08 in 10.0 mi Calm Calm - 0.00 in   Overcast
9:00 PM 73.4 °F - 71.6 °F 94% 30.11 in 10.0 mi NE 3.5 mph - N/A   Scattered Clouds
9:53 PM 73.0 °F - 71.1 °F 93% 30.10 in 10.0 mi Calm Calm - N/A   Clear
10:53 PM 72.0 °F - 71.1 °F 97% 30.11 in 8.0 mi Calm Calm - N/A   Clear
11:53 PM 72.0 °F - 70.0 °F 93% 30.13 in 10.0 mi Calm Calm - N/A   Clear